Showing default

TIANQI 29, 61195

Orbit data source: Space-Track

TIANQI 29, 61195 is a payload satellite owned by Guodian Gaokeji (CN) in LEO that was launched on Fri, 20 Sep 2024 UTC via a KUAIZHOU-1A launch vehicle from the Xichang Space Center, China (XSC). Payload-class satellites include a variety of spacecraft equipped with specific instruments for various scientific and technological missions. These include communications satellites like Starlink; space stations such as the ISS; scientific satellites like the Hubble; Earth observation satellites from companies like Planet Labs, Umbra, and HawkEye 360; GPS; miniature CubeSats for education and research; and military/defense satellites.

Loading next visibility...
Identifier
61195, 2024-170A
Orbit
LEO
Country
Flag of CNCN / PRC
Related business
Manufacturer
Shanghai ASES
Mission
Operational Commercial Communications
Bus & Motor
STARLIGHTB, Unknown motor
Mass
40 kg wet, ~40 kg dry
Launch date (UTC)
2024-09-20 (1 year ago)
Launch vehicle
KUAIZHOU-1A
Launch site
Xichang Space Center, China (XSC)
Object type
Payload
Rocket body
Debris
Shape & HBR
Box, 0.3 m
Radar Cross Section
0.195 m², Medium (>0.1 m² and < 1m²)

Expand to show TLE details & history
Last TLE update: 8 hours ago

TLE from 8 hours ago
0 TIANQI 29
1 61195U 24170A   25304.25941358  .00000107  00000-0  16130-3 0  9999
2 61195  44.8567  77.4223 0006250  97.2233 262.9308 13.99030584 56803
Epoch: 2025-10-31T06:13Z
TLE epoch observation values (Epoch: 2025-10-31T06:13:33.333Z)
Latitude
-0.00004°
Longitude
-55.77304°
Altitude
897.7 km
Speed
7.404 km/s
True Right ascension
05h 09m 41s
True Declination
0° 00' 00"
Sunlit
Object was in full shadow at epoch
Visualization orbit readout
Latitude
Unknown
Longitude
Unknown
Altitude
Unknown
Speed
Unknown
Apparent Right ascension
Unknown
Apparent Declination
Unknown
Sunlit
N/A
Visualization observer readout
Local Sidereal Time
10:00:58
Azimuth
Unknown
Elevation
Unknown
Doppler factor
Unknown
Orbital elements
Apogee altitude
903.243 km
Perigee altitude
894.147 km
Semi-major axis
7,276.832 km
Eccentricity
0.00063
Inclination
44.8567°
RAAN
77.4223°
Arg. of periapsis
97.2233°
True anomaly
262.85973°
Mean anomaly
262.9308°
Eccentric anomaly
262.89527°
Mean motion
3.49647 °/min
Orbital period
102.96 mins
BSTAR
0.0001613
Loading maneuver chart data...
Computing Atmospheric mass density...
Loading historical data...
Loading historical data...
Loading historical data...
Loading historical data...
Loading historical data...
Loading historical data...
Loading historical data...
Other satellites on launch #170 in the year 2024 (2024-09-20 UTC)

Documentation

Showing up to 5 results
|